When you browse on this site, cookies collect data to enhance your experience and personalize the content and advertising you see.
Visit our Privacy Policy to learn more. By continuing to use the site, you agree to this use of cookies and data.
  • In Portugal
  • List of Countries
  • For 7 days
  • Water Temperature
  • Weather Map
  • Weather Widgets
  • user-avatar
    Login

    Hourly Weather Lukowica

    Today, 23 September, Monday

    Time Temperature Precipitation Wind Pressure Humidity
    00:00 +10°C° 0 mm 1 mps 722 mmHg 77%
    01:00 +10°C° 0 mm 1 mps 722 mmHg 77%
    02:00 +10°C° 0 mm 1 mps 722 mmHg 75%
    03:00 +10°C° 0 mm 1 mps 721 mmHg 74%
    04:00 +10°C° 0 mm 1 mps 721 mmHg 73%
    05:00 +11°C° 0 mm 1 mps 721 mmHg 72%
    06:00 +12°C° 0 mm 1 mps 721 mmHg 71%
    07:00 +12°C° 0 mm 1 mps 722 mmHg 70%
    08:00 +13°C° 0.3 mm 1 mps 722 mmHg 69%
    09:00 +14°C° 0.3 mm 1 mps 722 mmHg 69%
    10:00 +15°C° 0.3 mm 1 mps 722 mmHg 69%
    11:00 +16°C° 0.2 mm 1 mps 722 mmHg 69%
    12:00 +18°C° 0.2 mm 1 mps 722 mmHg 68%
    13:00 +19°C° 0.2 mm 1 mps 722 mmHg 68%
    14:00 +18°C° 0 mm 1 mps 722 mmHg 71%
    15:00 +18°C° 0 mm 1 mps 721 mmHg 75%
    16:00 +18°C° 0 mm 1 mps 721 mmHg 78%
    17:00 +15°C° 0 mm 1 mps 721 mmHg 83%
    18:00 +14°C° 0 mm 1 mps 721 mmHg 88%
    19:00 +13°C° 0 mm 1 mps 721 mmHg 93%
    20:00 +12°C° 0 mm 1 mps 721 mmHg 93%
    21:00 +11°C° 0 mm 0 mps 722 mmHg 93%
    22:00 +10°C° 0 mm 0 mps 722 mmHg 93%
    23:00 +10°C° 0 mm 0 mps 722 mmHg 93%

    Tomorrow, 24 September, Tuesday

    Time Temperature Precipitation Wind Pressure Humidity
    00:00 +10°C° 0 mm 0 mps 722 mmHg 93%
    01:00 +9°C° 0 mm 0 mps 722 mmHg 94%
    02:00 +9°C° 0 mm 0 mps 721 mmHg 94%
    03:00 +9°C° 0 mm 0 mps 721 mmHg 94%
    04:00 +8°C° 0 mm 0 mps 721 mmHg 94%
    05:00 +9°C° 0 mm 0 mps 721 mmHg 92%
    06:00 +10°C° 0 mm 0 mps 721 mmHg 89%
    07:00 +11°C° 0 mm 0 mps 721 mmHg 87%
    08:00 +13°C° 0 mm 0 mps 721 mmHg 78%
    09:00 +16°C° 0 mm 1 mps 722 mmHg 68%
    10:00 +19°C° 0 mm 1 mps 722 mmHg 59%
    11:00 +20°C° 0 mm 1 mps 722 mmHg 56%
    12:00 +20°C° 0 mm 2 mps 721 mmHg 53%
    13:00 +20°C° 0 mm 2 mps 721 mmHg 49%
    14:00 +20°C° 0 mm 2 mps 721 mmHg 54%
    15:00 +19°C° 0 mm 2 mps 720 mmHg 58%
    16:00 +18°C° 0 mm 2 mps 720 mmHg 63%
    17:00 +16°C° 0 mm 2 mps 720 mmHg 71%
    18:00 +14°C° 0 mm 1 mps 720 mmHg 78%
    19:00 +12°C° 0 mm 1 mps 720 mmHg 86%
    20:00 +12°C° 0 mm 1 mps 720 mmHg 87%
    21:00 +11°C° 0 mm 1 mps 720 mmHg 87%
    22:00 +11°C° 0 mm 1 mps 720 mmHg 88%
    23:00 +11°C° 0 mm 1 mps 720 mmHg 86%

    Day after tomorrow, 25 September, Wednesday

    Time Temperature Precipitation Wind Pressure Humidity
    00:00 +11°C° 0 mm 1 mps 719 mmHg 84%
    01:00 +11°C° 0 mm 1 mps 719 mmHg 82%
    02:00 +11°C° 0 mm 1 mps 719 mmHg 80%
    03:00 +11°C° 0 mm 1 mps 719 mmHg 78%
    04:00 +12°C° 0 mm 1 mps 719 mmHg 77%
    05:00 +12°C° 0 mm 1 mps 719 mmHg 75%
    06:00 +13°C° 0 mm 1 mps 719 mmHg 74%
    07:00 +14°C° 0 mm 1 mps 719 mmHg 73%
    08:00 +15°C° 0 mm 1 mps 719 mmHg 68%
    09:00 +18°C° 0 mm 1 mps 719 mmHg 62%
    10:00 +20°C° 0 mm 1 mps 720 mmHg 56%
    11:00 +19°C° 0.1 mm 2 mps 719 mmHg 57%
    12:00 +20°C° 0.1 mm 2 mps 719 mmHg 58%
    13:00 +20°C° 0.1 mm 2 mps 719 mmHg 59%
    14:00 +19°C° 0.5 mm 2 mps 719 mmHg 67%
    15:00 +17°C° 0.5 mm 2 mps 718 mmHg 75%
    16:00 +16°C° 0.5 mm 2 mps 718 mmHg 83%
    17:00 +15°C° 0.1 mm 2 mps 718 mmHg 86%
    18:00 +14°C° 0.1 mm 1 mps 718 mmHg 89%
    19:00 +13°C° 0.1 mm 1 mps 718 mmHg 92%
    20:00 +13°C° 0 mm 1 mps 718 mmHg 92%
    21:00 +12°C° 0 mm 1 mps 719 mmHg 92%
    22:00 +12°C° 0 mm 1 mps 719 mmHg 93%
    23:00 +12°C° 0 mm 1 mps 719 mmHg 93%

    26 September, Thursday

    Time Temperature Precipitation Wind Pressure Humidity
    00:00 +12°C° 0 mm 2 mps 719 mmHg 92%
    01:00 +12°C° 0 mm 2 mps 719 mmHg 92%
    02:00 +12°C° 0 mm 2 mps 719 mmHg 92%
    03:00 +12°C° 0 mm 2 mps 719 mmHg 91%
    04:00 +12°C° 0 mm 1 mps 719 mmHg 91%
    05:00 +12°C° 0 mm 1 mps 720 mmHg 90%
    06:00 +13°C° 0 mm 1 mps 720 mmHg 90%
    07:00 +13°C° 0 mm 1 mps 720 mmHg 89%
    08:00 +14°C° 0.1 mm 2 mps 720 mmHg 84%
    09:00 +14°C° 0.1 mm 2 mps 721 mmHg 80%
    10:00 +15°C° 0.1 mm 2 mps 721 mmHg 76%
    11:00 +16°C° 0.3 mm 2 mps 721 mmHg 73%
    12:00 +16°C° 0.3 mm 2 mps 721 mmHg 71%
    13:00 +17°C° 0.3 mm 2 mps 721 mmHg 69%
    14:00 +17°C° 0.4 mm 2 mps 721 mmHg 72%
    15:00 +16°C° 0.4 mm 2 mps 721 mmHg 75%
    16:00 +16°C° 0.4 mm 1 mps 721 mmHg 79%
    17:00 +14°C° 0 mm 1 mps 721 mmHg 83%
    18:00 +13°C° 0 mm 1 mps 721 mmHg 86%
    19:00 +11°C° 0 mm 1 mps 721 mmHg 90%
    20:00 +11°C° 0 mm 1 mps 721 mmHg 91%
    21:00 +11°C° 0 mm 1 mps 722 mmHg 91%
    22:00 +11°C° 0 mm 1 mps 722 mmHg 92%
    23:00 +10°C° 0 mm 1 mps 722 mmHg 92%

    27 September, Friday

    Time Temperature Precipitation Wind Pressure Humidity
    00:00 +10°C° 0 mm 1 mps 722 mmHg 92%
    01:00 +10°C° 0 mm 1 mps 722 mmHg 92%
    02:00 +10°C° 0 mm 1 mps 722 mmHg 92%
    03:00 +10°C° 0 mm 1 mps 723 mmHg 92%
    04:00 +10°C° 0 mm 1 mps 723 mmHg 92%
    05:00 +10°C° 0 mm 1 mps 723 mmHg 90%
    06:00 +11°C° 0 mm 1 mps 723 mmHg 88%
    07:00 +12°C° 0 mm 1 mps 723 mmHg 86%
    08:00 +14°C° 0 mm 1 mps 723 mmHg 80%
    09:00 +16°C° 0 mm 1 mps 724 mmHg 73%
    10:00 +19°C° 0 mm 1 mps 724 mmHg 66%
    11:00 +20°C° 0 mm 1 mps 724 mmHg 63%
    12:00 +21°C° 0 mm 1 mps 724 mmHg 59%
    13:00 +21°C° 0 mm 2 mps 723 mmHg 56%
    14:00 +21°C° 0 mm 1 mps 723 mmHg 61%
    15:00 +21°C° 0 mm 1 mps 723 mmHg 66%
    16:00 +20°C° 0 mm 1 mps 723 mmHg 72%
    17:00 +19°C° 0 mm 1 mps 723 mmHg 77%
    18:00 +16°C° 0 mm 1 mps 723 mmHg 82%
    19:00 +15°C° 0 mm 1 mps 723 mmHg 88%
    20:00 +14°C° 0 mm 1 mps 723 mmHg 89%
    21:00 +14°C° 0 mm 1 mps 723 mmHg 90%
    22:00 +13°C° 0 mm 2 mps 723 mmHg 91%
    23:00 +13°C° 0 mm 2 mps 723 mmHg 91%

    28 September, Saturday

    Time Temperature Precipitation Wind Pressure Humidity
    00:00 +13°C° 0 mm 2 mps 723 mmHg 91%
    01:00 +13°C° 0 mm 2 mps 722 mmHg 91%
    02:00 +12°C° 0 mm 2 mps 722 mmHg 92%
    03:00 +12°C° 0 mm 2 mps 722 mmHg 92%
    04:00 +12°C° 0 mm 2 mps 722 mmHg 92%
    05:00 +13°C° 0 mm 2 mps 722 mmHg 90%
    06:00 +13°C° 0 mm 2 mps 722 mmHg 87%
    07:00 +14°C° 0 mm 2 mps 722 mmHg 85%
    08:00 +15°C° 0 mm 2 mps 722 mmHg 79%
    09:00 +17°C° 0 mm 2 mps 722 mmHg 72%
    10:00 +19°C° 0 mm 2 mps 723 mmHg 66%
    11:00 +18°C° 0.2 mm 2 mps 722 mmHg 70%
    12:00 +18°C° 0.2 mm 2 mps 722 mmHg 74%
    13:00 +18°C° 0.2 mm 2 mps 722 mmHg 78%
    14:00 +17°C° 0.4 mm 2 mps 722 mmHg 83%
    15:00 +15°C° 0.4 mm 1 mps 721 mmHg 88%
    16:00 +14°C° 0.4 mm 1 mps 721 mmHg 94%
    17:00 +14°C° 0 mm 1 mps 721 mmHg 94%
    18:00 +14°C° 0 mm 1 mps 721 mmHg 94%
    19:00 +13°C° 0 mm 1 mps 721 mmHg 94%
    20:00 +13°C° 0 mm 1 mps 721 mmHg 94%
    21:00 +12°C° 0 mm 1 mps 721 mmHg 94%
    22:00 +12°C° 0 mm 1 mps 721 mmHg 94%
    23:00 +12°C° 0 mm 2 mps 721 mmHg 93%
    Show more